Regional Weather Roundup
Issued by NWS

Home | Current Version | Previous Version | Graphics & Text | Print | Product List | Glossary On
Versions: 1 2 3 4 5 6 7 8 9 10 11 12 13 14 15 16 17 18 19 20 21 22 23 24 25 26 27 28 29 30 31 32 33 34 35 36 37 38 39 40 41 42 43 44 45 46 47 48 49 50
000
ASUS43 KLSX 200757
RWRMO

WEATHER SUMMARY FOR MISSOURI
NATIONAL WEATHER SERVICE SPRINGFIELD MO
300 AM CDT SUN AUG 20 2017

NOTE: "FAIR" INDICATES FEW OR NO CLOUDS BELOW 12,000 FEET WITH NO
       SIGNIFICANT WEATHER AND/OR OBSTRUCTIONS TO VISIBILITY.
       CURRENT SKY AND/OR WEATHER CONDITIONS ARE NOT AVAILABLE FOR
       CHILLICOTHE AND FARMINGTON.

MOZ001>031-035>038-043-044-053-054-200900-
...NORTHERN AND WESTERN MISSOURI...

CITY           SKY/WX    TMP DP  RH WIND       PRES   REMARKS
KANSAS CTY INT PTCLDY    78  74  87 S8        29.92R
LEE`S SUMMIT   CLOUDY    79  74  84 SW9       29.94R
ST JOSEPH      CLOUDY    76  74  93 SE6       29.90R
CHILLICOTHE      N/A     74  69  85 CALM      29.95R

$$
MOZ066>068-077>081-088>096-101>105-200900-
...SOUTHWEST MISSOURI...

CITY           SKY/WX    TMP DP  RH WIND       PRES   REMARKS
SPRINGFIELD    CLEAR     76  75  97 S8        29.97F
JOPLIN         MOCLDY    81  74  79 S10       29.95F

$$
MOZ032>034-039>042-045>050-055>058-069>072-200900-
...CENTRAL MISSOURI...

CITY           SKY/WX    TMP DP  RH WIND       PRES   REMARKS
COLUMBIA       NOT AVBL
JEFFERSON CITY CLEAR     69  69 100 SE6       29.93F
ROLLA          CLEAR     70  68  93 S8        29.98F
SEDALIA        CLOUDY    73  72  96 S6        29.95S
WARRENSBURG    CLEAR     73  70  88 S5        29.92R

$$
MOZ051-052-059>065-200900-
...EAST CENTRAL MISSOURI...

CITY           SKY/WX    TMP DP  RH WIND       PRES   REMARKS
ST LOUIS INTL  PTCLDY    76  68  76 SE3       29.96F

$$
MOZ072>076-082>087-097>100-106>115-200900-
...SOUTH CENTRAL AND SOUTHEAST MISSOURI...

CITY           SKY/WX    TMP DP  RH WIND       PRES   REMARKS
CAPE GIRARDEAU FOG       70  68  93 CALM      29.97F VSB 1/4
POPLAR BLUFF   PTCLDY    71  71 100 CALM      29.97F
WEST PLAINS    CLEAR     74  70  87 SW5       30.01F

$$



USA.gov is the U.S. government's official web portal to all federal, state and local government web resources and services.